User: anonymous   Login
Location: Wilsall
(45.9940°N, 110.6590°W)
Time: 13:16:48
(UTC-06:00)
Language:

GP-B - Orbit

View from above orbital plane
View from above orbital plane
View from above satellite
View from above satellite

Ground track
Ground track

The orbit data is extracted from the following two-line orbital elements,

1 28230U 04014A   17178.78714935 +.00000111 +00000-0 +12970-4 0  9998
2 28230 089.8481 121.8343 0003253 096.5514 263.6079 14.78544299167864
Epoch (UTC): 27 June 2017 18:53:29
Eccentricity: 0.0003253
inclination: 89.8481°
perigee height: 631 km
apogee height: 636 km
right ascension of ascending node: 121.8343°
argument of perigee: 96.5514°
revolutions per day: 14.78544299
mean anomaly at epoch: 263.6079°
orbit number at epoch: 16786

The dashed part of the orbit path shows where the satellite is in the earth's shadow,  

DLR